Location: ??????
(56.0120°N, 39.1740°E)
Time: 06:26:29
(UTC+00:00)

BREEZE-M R/B - Pass Details

Date: 14 April 2026
Orbit: 1039 x 14819 km, 50.7° (Epoch: 10 May)

Event Time Altitude Azimuth Distance (km) Brightness Sun altitude
Rises 20:52:52 0° 248° (WSW) 6,420 8.1 -24.0°
Reaches altitude 10° 20:57:50 10° 244° (WSW) 4,365 7.2 -24.1°
Maximum altitude 21:06:19 53° 170° (S) 1,383 4.3 -24.2°
Drops below altitude 10° 21:11:50 10° 93° (E) 2,864 6.4 -24.3°
Sets 21:14:20 0° 88° (E) 3,971 7.2 -24.3°
